[[{"header":{"parameterUnit":"m.s-1","parameterCategory":1,"la1":30.2991,"la2":30.254,"lo1":-89.0895,"lo2":-89.0444,"dy":0.0017,"dx":0.0017,"nx":28,"ny":28,"refTime":"2023-05-23T21:00:00:Z","depth":0,"parameterNumber":2,"parameterNumberName":"U-component_of_WINDS"},"data":[0,0,0,0,0,0,0,0,0,0,0,0,0,0,0,0,0,0,0,0,0,0,0,0,0,0,0,0,0,0,0,0,0,0,0,0,0,0,0,0,0,0,0,0,0,0,0,0,0,0,0,0,0,0,0,0,0,0,-2.6824,-2.6824,0,-2.6788,-2.6788,-2.6788,-2.6715,-2.6713,-2.6712,-2.671,-2.6672,-2.6672,-2.6673,0,0,0,0,0,0,0,0,0,0,0,0,0,-2.683,-2.683,-2.6824,-2.6824,-2.6823,-2.6788,-2.6788,-2.6787,-2.6715,-2.6713,-2.6711,-2.671,-2.6672,-2.6672,-2.6673,0,0,0,0,0,0,0,0,0,0,0,0,0,-2.6814,-2.683,-2.6824,-2.6783,-2.6779,-2.6789,-2.6788,-2.6787,-2.6715,-2.6713,-2.6711,-2.6709,-2.6672,-2.6672,-2.6673,-2.6719,0,0,-2.6674,-2.6675,0,0,0,0,0,0,0,0,-2.6815,-2.6814,-2.6789,-2.6786,-2.6781,-2.6754,-2.6776,-2.6765,-2.6716,-2.6739,-2.671,-2.6708,-2.6701,-2.6699,-2.6697,-2.6718,-2.6716,-2.6674,-2.6675,-2.6675,-2.6675,0,0,0,0,0,0,0,-2.6816,-2.6815,-2.681,-2.6789,-2.6784,-2.6766,-2.6762,-2.6773,-2.6733,-2.6737,-2.6732,-2.6729,-2.6698,-2.6697,-2.6695,-2.6715,-2.6674,-2.6675,-2.6675,-2.6675,-2.6775,-2.6777,0,0,0,0,0,0,-2.6823,-2.6816,-2.6811,-2.6809,-2.6793,-2.6768,-2.6763,-2.6765,-2.6732,-2.6725,-2.673,-2.6725,-2.6697,-2.6695,-2.6694,-2.6748,-2.6675,-2.6675,-2.6676,-2.6773,-2.6775,-2.6778,0,0,0,0,0,0,-2.6824,-2.6824,-2.6813,-2.6811,-2.6808,-2.677,-2.6773,-2.6765,-2.6763,-2.6727,-2.672,-2.6736,-2.6695,-2.6693,-2.6714,-2.6745,-2.6676,-2.6676,-2.677,-2.6773,-2.6777,-2.6856,0,0,0,0,0,0,-2.6824,-2.6824,-2.6841,-2.6812,-2.6809,-2.6834,-2.6775,-2.6766,-2.6765,-2.6758,-2.6731,-2.6724,-2.6693,-2.6714,-2.6715,-2.6745,-2.6677,-2.6767,-2.6771,-2.6776,-2.685,-2.6861,-2.6871,0,0,0,0,0,-2.6825,-2.6864,-2.6843,-2.6842,-2.683,-2.6836,-2.6834,-2.6798,-2.6767,-2.6785,-2.6762,-2.6725,-2.6742,-2.6717,-2.6717,-2.6748,-2.6765,-2.677,-2.6775,-2.6845,-2.6859,-2.6871,0,0,0,0,0,0,-2.6897,-2.686,-2.6835,-2.6866,-2.6855,-2.6823,-2.6844,-2.6813,-2.6809,-2.6803,-2.6758,-2.6752,-2.678,-2.6765,-2.6738,-2.6792,-2.6748,-2.6753,-2.6801,-2.6813,-2.6824,-2.6827,-2.6677,0,0,0,0,0,-2.6917,-2.6925,-2.6892,-2.6923,-2.6918,-2.6882,-2.6884,-2.6857,-2.6843,-2.6838,-2.6816,-2.6804,-2.6806,-2.6809,-2.6809,-2.6847,-2.6841,-2.6869,-2.6879,-2.6888,-2.6894,-2.6915,-2.6927,-2.6795,-2.6795,-2.6795,0,0,-2.6957,-2.6938,-2.6946,-2.6937,-2.6925,-2.6935,-2.6879,-2.6891,-2.6898,-2.6839,-2.6858,-2.6843,-2.6826,-2.6857,-2.6869,-2.6845,-2.6929,-2.6895,-2.6902,-2.6903,-2.6922,-2.6934,-2.6945,-2.6799,-2.6798,-2.6798,0,0,-2.7037,-2.7022,-2.7047,-2.7037,-2.702,-2.6996,-2.7002,-2.6976,-2.6964,-2.6982,-2.6939,-2.6947,-2.6952,-2.6942,-2.6938,-2.7016,-2.6983,-2.7018,-2.7073,-2.7094,-2.7104,-2.7113,-2.7143,-2.7154,-2.7023,-2.7023,-2.7023,0,-2.7089,-2.7103,-2.7064,-2.708,-2.7078,-2.7026,-2.7052,-2.7043,-2.7027,-2.7027,-2.7001,-2.7008,-2.6993,-2.7022,-2.7041,-2.7039,-2.7045,-2.7021,-2.7106,-2.7115,-2.7123,-2.715,-2.7161,-2.7028,-2.7027,-2.7027,-2.7026,0,-2.7169,-2.7179,-2.7201,-2.7188,-2.7189,-2.7209,-2.7174,-2.7179,-2.7153,-2.7132,-2.7153,-2.7134,-2.713,-2.7135,-2.7108,-2.716,-2.7147,-2.7114,-2.7068,-2.714,-2.7166,-2.7176,-2.7034,-2.7033,-2.7031,-2.703,0,0,-2.7292,-2.7259,-2.7268,-2.7262,-2.7241,-2.7248,-2.7267,-2.7264,-2.727,-2.7261,-2.7276,-2.7283,-2.7253,-2.7249,-2.7221,-2.724,-2.7306,-2.7205,-2.7204,-2.7226,-2.7364,-2.7389,-2.7402,-2.7283,-2.7285,-2.7287,-2.7366,0,-2.7367,-2.7398,-2.7364,-2.7402,-2.7412,-2.7364,-2.7381,-2.737,-2.7351,-2.7357,-2.7336,-2.7342,-2.7302,-2.7299,-2.7316,-2.7294,-2.7333,-2.7288,-2.7298,-2.7299,-2.7305,-2.7415,-2.7441,-2.7517,-2.7375,-2.7377,-2.7378,0,-2.7458,-2.7455,-2.7495,-2.7473,-2.7476,-2.7491,-2.7487,-2.7493,-2.748,-2.7465,-2.7462,-2.743,-2.7447,-2.7403,-2.7427,-2.7397,-2.74,-2.739,-2.7392,-2.7392,-2.7343,-2.7419,-2.754,-2.7552,-2.7393,-2.7391,-2.739,0,-2.7546,-2.7552,-2.7576,-2.7573,-2.7547,-2.756,-2.755,-2.7535,-2.7536,-2.7533,-2.7533,-2.7532,-2.7531,-2.7531,-2.7499,-2.7469,-2.7528,-2.748,-2.7517,-2.7519,-2.7532,-2.7532,-2.7656,-2.7532,-2.7532,-2.7532,-2.7531,0,-2.7634,-2.766,-2.7616,-2.7631,-2.766,-2.7622,-2.7651,-2.7636,-2.7623,-2.7635,-2.7593,-2.7605,-2.7563,-2.757,-2.7546,-2.7571,-2.757,-2.756,-2.7553,-2.7564,-2.7566,-2.7566,-2.756,-2.7535,-2.7534,-2.7533,-2.7533,0,-2.7737,-2.7708,-2.7732,-2.7707,-2.7701,-2.7724,-2.7702,-2.7715,-2.7695,-2.7711,-2.7712,-2.768,-2.7687,-2.7656,-2.7657,-2.7641,-2.7679,-2.7663,-2.7684,-2.768,-2.7719,-2.7716,-2.7848,-2.7864,-2.7729,-2.773,-2.7731,0,-2.7795,-2.7815,-2.7792,-2.7798,-2.779,-2.7799,-2.7801,-2.7765,-2.7768,-2.7756,-2.7772,-2.7776,-2.7777,-2.7791,-2.7768,-2.777,-2.7754,-2.78,-2.7754,-2.7765,-2.7757,-2.7756,-2.7759,-2.781,-2.7812,-2.7813,-2.7814,0,-2.7903,-2.7888,-2.7892,-2.7893,-2.7896,-2.7894,-2.789,-2.7896,-2.7857,-2.7864,-2.7871,-2.7873,-2.7875,-2.7881,-2.7878,-2.7867,-2.7835,-2.7829,-2.7838,-2.785,-2.7862,-2.7858,-2.7712,-2.7826,-2.7825,-2.7824,-2.7823,-2.7823,-2.7986,-2.8002,-2.7989,-2.7996,-2.7989,-2.7986,-2.7999,-2.798,-2.7986,-2.7986,-2.7964,-2.7977,-2.7965,-2.7958,-2.7951,-2.7961,-2.7939,-2.7952,-2.7955,-2.7959,-2.7967,-2.786,-2.796,-2.7959,-2.7959,-2.7959,-2.7958,0,-2.8092,-2.8082,-2.8089,-2.8085,-2.8091,-2.8061,-2.8054,-2.8061,-2.8073,-2.8065,-2.8068,-2.8078,-2.8084,-2.8062,-2.8064,-2.8076,-2.8062,-2.8078,-2.8077,-2.8076,-2.7985,-2.7978,-2.809,-2.809,-2.809,-2.809,-2.809,-2.809,-2.8149,-2.8175,-2.8159,-2.8182,-2.8172,-2.8184,-2.8184,-2.8181,-2.8175,-2.8189,-2.8193,-2.8179,-2.8166,-2.8168,-2.8172,-2.8165,-2.8169,-2.8191,-2.8179,-2.8095,-2.8082,-2.807,-2.8063,-2.8192,-2.8192,-2.827,-2.8271,-2.8271]},{"header":{"parameterUnit":"m.s-1","parameterCategory":1,"la1":30.2991,"la2":30.254,"lo1":-89.0895,"lo2":-89.0444,"dy":0.0017,"dx":0.0017,"nx":28,"ny":28,"refTime":"2023-05-23T21:00:00:Z","depth":0,"parameterNumber":3,"parameterNumberName":"V-component_of_WINDS"},"data":[0,0,0,0,0,0,0,0,0,0,0,0,0,0,0,0,0,0,0,0,0,0,0,0,0,0,0,0,0,0,0,0,0,0,0,0,0,0,0,0,0,0,0,0,0,0,0,0,0,0,0,0,0,0,0,0,0,0,-1.2048,-1.2048,0,-1.2028,-1.2027,-1.2027,-1.2028,-1.2029,-1.2029,-1.2029,-1.2006,-1.2005,-1.2004,0,0,0,0,0,0,0,0,0,0,0,0,0,-1.2088,-1.2087,-1.2048,-1.2048,-1.2048,-1.2028,-1.2027,-1.2027,-1.2028,-1.2029,-1.2029,-1.2029,-1.2006,-1.2005,-1.2004,0,0,0,0,0,0,0,0,0,0,0,0,0,-1.2069,-1.2087,-1.2048,-1.2046,-1.2046,-1.2028,-1.2027,-1.2027,-1.2028,-1.2029,-1.2029,-1.2029,-1.2006,-1.2005,-1.2003,-1.1986,0,0,-1.1999,-1.1999,0,0,0,0,0,0,0,0,-1.207,-1.2068,-1.2047,-1.2046,-1.2046,-1.2031,-1.2033,-1.2013,-1.2028,-1.2035,-1.2029,-1.203,-1.2013,-1.2012,-1.2007,-1.1985,-1.1984,-1.1999,-1.1998,-1.1998,-1.1997,0,0,0,0,0,0,0,-1.2072,-1.2069,-1.204,-1.2046,-1.2046,-1.2046,-1.2044,-1.2029,-1.2022,-1.2034,-1.2034,-1.2032,-1.2013,-1.2008,-1.2006,-1.1983,-1.1999,-1.1998,-1.1997,-1.1997,-1.1949,-1.1948,0,0,0,0,0,0,-1.2074,-1.207,-1.2041,-1.2039,-1.2059,-1.2045,-1.2042,-1.2035,-1.2022,-1.202,-1.2031,-1.2032,-1.201,-1.2008,-1.2005,-1.1985,-1.1998,-1.1996,-1.1996,-1.1949,-1.1949,-1.1948,0,0,0,0,0,0,-1.2074,-1.2071,-1.2041,-1.2055,-1.2051,-1.2043,-1.2036,-1.2035,-1.2029,-1.202,-1.2018,-1.2027,-1.201,-1.2007,-1.1991,-1.1985,-1.1996,-1.1995,-1.195,-1.1949,-1.1948,-1.1945,0,0,0,0,0,0,-1.2076,-1.2071,-1.2064,-1.2054,-1.205,-1.2028,-1.2035,-1.2034,-1.2027,-1.2028,-1.2016,-1.2014,-1.201,-1.1994,-1.199,-1.1983,-1.1994,-1.195,-1.1949,-1.1949,-1.1945,-1.1944,-1.1943,0,0,0,0,0,-1.2077,-1.2063,-1.2064,-1.2061,-1.2042,-1.2028,-1.2025,-1.2022,-1.2027,-1.202,-1.2014,-1.2014,-1.1986,-1.1992,-1.1988,-1.198,-1.1951,-1.195,-1.1949,-1.1946,-1.1944,-1.1943,0,0,0,0,0,0,-1.2071,-1.2062,-1.2063,-1.2045,-1.2038,-1.2028,-1.2019,-1.202,-1.201,-1.2011,-1.2006,-1.2004,-1.1988,-1.1983,-1.1989,-1.1964,-1.1969,-1.1967,-1.1968,-1.1966,-1.1965,-1.1967,-1.1992,0,0,0,0,0,-1.2068,-1.2058,-1.205,-1.2035,-1.2032,-1.2026,-1.202,-1.2019,-1.201,-1.2006,-1.1999,-1.1991,-1.198,-1.1973,-1.1962,-1.1945,-1.1943,-1.1938,-1.1936,-1.1935,-1.1934,-1.1926,-1.1924,-1.1945,-1.1945,-1.1945,0,0,-1.2061,-1.2054,-1.2048,-1.2034,-1.2028,-1.2018,-1.2023,-1.2012,-1.2004,-1.2004,-1.199,-1.1985,-1.1975,-1.1959,-1.1951,-1.1953,-1.1928,-1.1934,-1.1933,-1.1932,-1.1925,-1.1923,-1.1921,-1.1944,-1.1944,-1.1944,0,0,-1.2043,-1.2037,-1.2025,-1.2019,-1.2011,-1.2008,-1.2005,-1.1996,-1.1993,-1.1979,-1.1979,-1.197,-1.1951,-1.1945,-1.1939,-1.1922,-1.1922,-1.1918,-1.1912,-1.1904,-1.1903,-1.1901,-1.1896,-1.1894,-1.1917,-1.1917,-1.1917,0,-1.2035,-1.202,-1.2019,-1.2008,-1.2002,-1.2004,-1.1992,-1.1986,-1.1974,-1.197,-1.1973,-1.1952,-1.1945,-1.1928,-1.1924,-1.1919,-1.1917,-1.192,-1.1903,-1.1902,-1.19,-1.1896,-1.1894,-1.1917,-1.1917,-1.1917,-1.1917,0,-1.2012,-1.2002,-1.1993,-1.1984,-1.1977,-1.1966,-1.1963,-1.1956,-1.1956,-1.1953,-1.1939,-1.1931,-1.192,-1.1916,-1.1915,-1.19,-1.1902,-1.1904,-1.1909,-1.1898,-1.1894,-1.1892,-1.1916,-1.1916,-1.1916,-1.1917,0,0,-1.1988,-1.198,-1.1977,-1.1973,-1.1965,-1.1957,-1.1947,-1.1937,-1.1932,-1.1924,-1.1916,-1.1901,-1.1904,-1.1898,-1.1896,-1.1889,-1.1878,-1.1892,-1.1892,-1.1891,-1.1863,-1.1862,-1.186,-1.1879,-1.1878,-1.1878,-1.1865,0,-1.1971,-1.1953,-1.1952,-1.1936,-1.1928,-1.193,-1.1921,-1.1915,-1.1912,-1.1905,-1.1901,-1.1892,-1.1895,-1.1892,-1.1885,-1.1881,-1.1873,-1.1882,-1.1871,-1.1871,-1.1874,-1.1858,-1.1856,-1.1844,-1.1863,-1.1862,-1.1862,0,-1.1947,-1.1941,-1.1925,-1.192,-1.1916,-1.1908,-1.1901,-1.1893,-1.1887,-1.1885,-1.188,-1.1879,-1.1869,-1.1875,-1.1861,-1.1868,-1.1863,-1.1861,-1.186,-1.1859,-1.1866,-1.1857,-1.1839,-1.1838,-1.1859,-1.1859,-1.186,0,-1.1934,-1.1921,-1.191,-1.1907,-1.19,-1.1895,-1.1892,-1.1886,-1.1881,-1.1875,-1.1872,-1.1863,-1.1859,-1.1853,-1.185,-1.1855,-1.1837,-1.1843,-1.1836,-1.1836,-1.1832,-1.1833,-1.1815,-1.1829,-1.1829,-1.1829,-1.1829,0,-1.1915,-1.1905,-1.1904,-1.1897,-1.1887,-1.1886,-1.1876,-1.1873,-1.1868,-1.1861,-1.1862,-1.1856,-1.1853,-1.1846,-1.1844,-1.1834,-1.1832,-1.1831,-1.183,-1.1831,-1.1831,-1.1828,-1.1829,-1.1828,-1.1828,-1.1829,-1.1829,0,-1.1898,-1.1897,-1.1885,-1.1881,-1.188,-1.1872,-1.1868,-1.1862,-1.186,-1.1852,-1.1849,-1.1846,-1.1838,-1.1836,-1.1826,-1.1825,-1.1813,-1.1813,-1.1816,-1.1816,-1.181,-1.1811,-1.1789,-1.1787,-1.1802,-1.1802,-1.1802,0,-1.1886,-1.1879,-1.1874,-1.187,-1.1868,-1.1861,-1.1857,-1.1856,-1.1852,-1.1845,-1.184,-1.1833,-1.1827,-1.1814,-1.1811,-1.1803,-1.1804,-1.1797,-1.1803,-1.1804,-1.1805,-1.1806,-1.1805,-1.1796,-1.1796,-1.1795,-1.1795,0,-1.1865,-1.1866,-1.186,-1.1855,-1.185,-1.1845,-1.1841,-1.1837,-1.1836,-1.1831,-1.1824,-1.182,-1.1811,-1.1804,-1.1797,-1.1793,-1.1794,-1.1794,-1.1792,-1.1793,-1.1795,-1.1795,-1.1813,-1.1794,-1.1794,-1.1794,-1.1794,-1.1794,-1.1851,-1.1846,-1.1843,-1.1837,-1.1834,-1.183,-1.1825,-1.1823,-1.1817,-1.1811,-1.1811,-1.1803,-1.1799,-1.179,-1.1787,-1.1781,-1.1783,-1.178,-1.1779,-1.1779,-1.1779,-1.1796,-1.1779,-1.1779,-1.1779,-1.1779,-1.1779,0,-1.1832,-1.1831,-1.1825,-1.182,-1.1816,-1.1818,-1.1814,-1.181,-1.1804,-1.18,-1.1795,-1.1787,-1.1781,-1.1778,-1.1772,-1.1768,-1.1768,-1.1766,-1.1766,-1.1766,-1.1777,-1.1779,-1.1766,-1.1766,-1.1766,-1.1766,-1.1766,-1.1766,-1.1822,-1.1813,-1.1813,-1.1804,-1.1802,-1.1796,-1.1793,-1.179,-1.1788,-1.1779,-1.1775,-1.1773,-1.177,-1.1764,-1.1759,-1.1758,-1.1756,-1.1754,-1.1753,-1.1764,-1.1765,-1.1766,-1.1769,-1.1753,-1.1753,-1.1743,-1.1743,-1.1743]}]]